FW0420 Weather Reports


time (UTC)temp
C
wind
direction
speed
KPH
gust
KPH
rain 1hr
cm
rain 24hr
cm
rain mn
cm
humidity
%
barometer
mb
20260509024557 9 345 0.0 0.0 0.00 0.00 0.00 46 1005.7
20260509023055 9 345 0.0 0.0 0.00 0.00 0.00 45 1005.8
20260509021556 10 345 0.0 1.6 0.00 0.00 0.00 44 1005.7
20260509020055 12 360 0.0 6.4 0.00 0.00 0.00 39 1005.7
20260509014554 12 360 3.2 9.7 0.00 0.00 0.00 38 1005.7
20260509013055 12 360 4.8 9.7 0.00 0.00 0.00 42 1005.5
20260509011604 12 360 0.0 4.8 0.00 0.00 0.00 44 1005.4
20260509010053 12 360 1.6 3.2 0.00 0.00 0.00 43 1005.0
20260509004607 13 360 0.0 3.2 0.00 0.00 0.00 41 1004.9
20260509003052 15 266 0.0 1.6 0.00 0.00 0.00 38 1004.8
20260509001553 15 360 1.6 12.9 0.00 0.00 0.00 34 1004.7
20260509000052 16 360 6.4 14.5 0.00 0.00 0.00 33 1004.7
20260508234550 16 360 3.2 16.1 0.00 0.00 0.00 33 1004.7
20260508233049 16 284 6.4 16.1 0.00 0.00 0.00 32 1004.7
20260508231550 16 254 4.8 20.9 0.00 0.00 0.00 33 1004.7
20260508230047 17 172 3.2 17.7 0.00 0.00 0.00 35 1004.8
20260508224545 16 360 9.7 20.9 0.00 0.00 0.00 34 1005.0
20260508223049 16 197 4.8 19.3 0.00 0.00 0.00 33 1005.0
20260508221542 16 226 6.4 19.3 0.00 0.00 0.00 34 1005.1
20260508220042 17 261 3.2 19.3 0.00 0.00 0.00 33 1005.1
20260508214548 17 167 9.7 22.5 0.00 0.00 0.00 32 1005.3
20260508213039 17 257 9.7 27.4 0.00 0.00 0.00 32 1005.4
20260508211537 17 269 14.5 25.7 0.00 0.00 0.00 32 1005.5
20260508210034 16 238 6.4 25.7 0.00 0.00 0.00 33 1005.7
20260508204538 17 269 11.3 17.7 0.00 0.00 0.00 32 1005.7
20260508203030 16 186 8.0 24.1 0.00 0.00 0.00 34 1006.0
20260508201529 16 333 8.0 19.3 0.00 0.00 0.00 33 1006.2
20260508200027 16 192 9.7 25.7 0.00 0.00 0.00 34 1006.6
20260508194523 16 258 6.4 27.4 0.00 0.00 0.00 33 1006.8
20260508193021 15 179 14.5 24.1 0.00 0.00 0.00 36 1007.1
20260508191520 15 219 9.7 17.7 0.00 0.00 0.00 34 1007.2
20260508190024 15 250 8.0 24.1 0.00 0.00 0.00 33 1007.3
20260508184517 15 284 11.3 27.4 0.00 0.00 0.00 36 1007.7
20260508183016 15 205 4.8 20.9 0.00 0.00 0.00 35 1007.7
20260508181514 14 225 1.6 14.5 0.00 0.00 0.00 39 1007.8
20260508180017 15 190 8.0 25.7 0.00 0.00 0.00 37 1008.0
20260508174511 15 248 11.3 22.5 0.00 0.00 0.00 34 1008.5
20260508173009 14 269 4.8 17.7 0.00 0.00 0.00 34 1008.5
20260508171504 14 248 4.8 19.3 0.00 0.00 0.00 37 1008.8
20260508170003 15 225 14.5 24.1 0.00 0.00 0.00 35 1008.8
20260508164559 14 197 8.0 19.3 0.00 0.00 0.00 31 1009.2
20260508163057 13 316 4.8 27.4 0.00 0.00 0.00 33 1009.5
20260508161552 13 279 9.7 19.3 0.00 0.00 0.00 31 1009.5
20260508160112 13 263 6.4 22.5 0.00 0.00 0.00 37 1009.6
20260508154544 13 264 6.4 12.9 0.00 0.00 0.00 38 1009.6
20260508153047 12 360 0.0 16.1 0.00 0.00 0.00 41 1009.6
20260508151546 12 360 1.6 14.5 0.00 0.00 0.00 37 1009.9
20260508150038 12 269 12.9 20.9 0.00 0.00 0.00 38 1010.0
20260508144534 12 360 6.4 14.5 0.00 0.00 0.00 42 1009.9
20260508143036 11 198 4.8 11.3 0.00 0.00 0.00 47 1010.1
20260508141536 11 169 3.2 11.3 0.00 0.00 0.00 45 1010.2
20260508140021 11 277 0.0 9.7 0.00 0.00 0.00 53 1010.3
20260508134528 11 184 3.2 8.0 0.00 0.00 0.00 52 1010.5
20260508133017 10 155 1.6 9.7 0.00 0.00 0.00 58 1010.5
20260508131508 9 154 0.0 8.0 0.00 0.00 0.00 58 1010.6
20260508130003 8 180 1.6 8.0 0.00 0.00 0.00 62 1010.5
20260508124559 8 147 4.8 9.7 0.00 0.00 0.00 66 1010.5
20260508123054 7 184 6.4 9.7 0.00 0.00 0.00 72 1010.5
20260508121603 6 229 1.6 4.8 0.00 0.00 0.00 78 1010.2
20260508120047 5 229 3.2 4.8 0.00 0.00 0.00 84 1010.1
20260508114643 3 233 0.0 0.0 0.00 0.00 0.00 90 1010.0
20260508113042 2 233 0.0 0.0 0.00 0.00 0.00 91 1009.8
20260508111540 1 360 0.0 1.6 0.00 0.00 0.00 92 1009.8
20260508110048 1 236 0.0 0.0 0.00 0.00 0.00 91 1009.7
20260508104536 1 236 0.0 0.0 0.00 0.00 0.00 91 1009.7
20260508103037 1 236 0.0 1.6 0.00 0.00 0.00 90 1009.6
20260508101535 1 75 0.0 1.6 0.00 0.00 0.00 90 1009.7
20260508100033 1 75 0.0 0.0 0.00 0.00 0.00 89 1009.8
20260508094529 1 69 0.0 3.2 0.00 0.00 0.00 89 1009.8
20260508093026 1 69 0.0 1.6 0.00 0.00 0.00 89 1010.0
20260508091525 1 69 3.2 6.4 0.00 0.00 0.00 87 1010.0
20260508090021 2 142 0.0 0.0 0.00 0.00 0.00 86 1010.0
20260508084522 2 147 0.0 0.0 0.00 0.00 0.00 86 1010.0
20260508083048 2 146 0.0 0.0 0.00 0.00 0.00 84 1010.0
20260508081514 3 142 0.0 0.0 0.00 0.00 0.00 84 1010.0
20260508080012 3 140 0.0 0.0 0.00 0.00 0.00 82 1009.9
20260508074508 3 360 0.0 3.2 0.00 0.00 0.00 80 1009.9
20260508073006 5 360 0.0 3.2 0.00 0.00 0.00 79 1009.9
20260508071506 5 360 1.6 4.8 0.00 0.00 0.00 78 1009.7
20260508070004 5 360 1.6 4.8 0.00 0.00 0.00 77 1009.8
20260508064504 5 360 0.0 4.8 0.00 0.00 0.00 76 1010.1
20260508063000 6 360 1.6 4.8 0.00 0.00 0.00 78 1010.2
20260508061603 5 360 0.0 1.6 0.00 0.00 0.00 78 1010.3
20260508061503 5 360 0.0 1.6 0.00 0.00 0.00 78 1010.4
20260508060110 5 360 0.0 3.2 0.00 0.00 0.00 76 1010.3
20260508054604 5 360 1.6 4.8 0.00 0.00 0.00 75 1010.5
20260508053102 6 360 6.4 12.9 0.00 0.00 0.00 73 1010.0
20260508051553 6 360 1.6 4.8 0.00 0.00 0.00 73 1010.3
20260508050056 6 360 1.6 3.2 0.00 0.00 0.00 73 1010.4
20260508044551 6 360 0.0 3.2 0.00 0.00 0.00 71 1010.5
20260508043050 6 360 3.2 4.8 0.00 0.00 0.00 72 1010.3
20260508041546 5 360 6.4 9.7 0.00 0.00 0.00 76 1010.7
20260508040042 5 360 1.6 3.2 0.00 0.00 0.00 74 1010.3
20260508034541 5 360 0.0 3.2 0.00 0.00 0.00 73 1010.1
20260508033042 5 360 0.0 3.2 0.00 0.00 0.00 71 1010.1
20260508031541 5 360 0.0 0.0 0.00 0.00 0.00 72 1010.0
20260508030046 6 360 1.6 3.2 0.00 0.00 0.00 67 1010.2